Regional Weather Roundup
Issued by NWS

Home | Current Version | Previous Version | Text Only | Print | Product List | Glossary Off
Versions: 1 2 3 4 5 6 7 8 9 10 11 12 13 14 15 16 17 18 19 20 21 22 23 24 25 26 27 28 29 30 31 32 33 34 35 36 37 38 39 40 41 42 43 44 45 46 47 48 49 50

000
ASUS43 KLOT 211110
RWRIL

ILLINOIS REGIONAL WEATHER ROUNDUP
NATIONAL WEATHER SERVICE CHICAGO/ROMEOVILLE IL
500 AM CST SUN DEC 21 2014

NOTE: "FAIR" INDICATES FEW OR NO CLOUDS BELOW 12,000 FEET WITH NO
SIGNIFICANT WEATHER AND/OR OBSTRUCTIONS TO VISIBILITY.

* THESE STATIONS ARE NOT UNDER NWS QUALITY CONTROL. THEY ALSO MAY NOT
  REPORT WEATHER SUCH AS PRECIPITATION OR FOG.

ILZ001-002-007-009-015-016-024-211200-
NORTHWEST ILLINOIS

CITY           SKY/WX    TMP DP  RH WIND       PRES   REMARKS
MOLINE         CLOUDY    35  32  88 SE5       30.13F FOG     WCI  31
STERLING*      CLOUDY    34  28  80 S5        30.16F WCI  30
SAVANNA*       CLOUDY    34  32  93 SE8       30.14F FOG     WCI  27
$$

ILZ003-004-008-010-011-017-018-211200-
NORTH CENTRAL ILLINOIS

CITY           SKY/WX    TMP DP  RH WIND       PRES   REMARKS
ROCKFORD       CLOUDY    32  29  88 S7        30.18F WCI  26
FREEPORT*      CLOUDY    32  31  95 S10       30.16F FOG     WCI  23
ROCHELLE*      CLOUDY    32  30  93 S10       30.17F FOG     WCI  23
DE KALB*       CLOUDY    30  28  93 SE12      30.18F FOG     WCI  20
PERU*          CLOUDY    34  31  88 S8        30.19F WCI  28
$$

ILZ005-006-012>014-019>023-211200-
NORTHEAST ILLINOIS

CITY           SKY/WX    TMP DP  RH WIND       PRES   REMARKS
CHICAGO-OHARE  CLOUDY    32  27  81 S7        30.21S WCI  26
CHICAGO-MIDWAY CLOUDY    34  27  75 S7        30.22F WCI  28
AURORA         CLOUDY    33  27  78 SE8       30.20F HAZE    WCI  26
LANSING*       CLOUDY    32  27  81 S7        30.24S WCI  26
JOLIET*        CLOUDY    32  28  85 SE5       30.22S WCI  27
WAUKEGAN       CLOUDY    32  26  78 S6        30.19F WCI  26
DUPAGE AIRPORT CLOUDY    32  27  81 S8        30.19F WCI  25
KANKAKEE*      CLOUDY    32  28  84 SE7       30.23F WCI  26
WHEELING       CLOUDY    33  27  78 S7        30.23S WCI  27
MORRIS*        CLOUDY    32  31  95 S3        30.21S FOG
ROMEOVILLE*    CLOUDY    32  28  86 S12       30.21F WCI  23
NORTHERLY ISL    N/A     33  26  76 S3          N/A
$$

LMZ740>746-211200-
SOUTHERN LAKE MICHIGAN

STATION/POSITION SKY/WX   TEMP    WIND        PRES    VSBY  WAVE
                          AIR SEA DIR/SP/G                  HT/PER
                          (F)     (DEG/KT/KT) (MB)    (MI)  (FT/S)
WAUKEGAN HARBOR            33     190/  7/ 11   N/A
HARRISON CRIB              33     170/ 12/ 14   N/A
BURNHAM HARBOR             33     190/  5/  9   N/A
CALUMET HARBOR             32     170/ 10/ 12 1022.3S
$$

ILZ025>027-034>036-040-047-049-050-058-095>099-211200-
WEST-CENTRAL ILLINOIS

CITY           SKY/WX    TMP DP  RH WIND       PRES   REMARKS
QUINCY         CLOUDY    38  34  85 S7        30.15F WCI  33
GALESBURG*     CLOUDY    34  33  95 SE3       30.15F FOG
MACOMB*        CLOUDY    36  34  94 S7        30.18S FOG     WCI  30
JACKSONVILLE*  CLOUDY    40  34  81 S7        30.18F
PITTSFIELD*    CLOUDY    38  35  89 SE5       30.18S WCI  34
$$

ILZ028>032-037-038-041>044-048-051>054-059>061-211200-
CENTRAL ILLINOIS

CITY           SKY/WX    TMP DP  RH WIND       PRES   REMARKS
PONTIAC        CLOUDY    33  31  92 SE7       30.22S WCI  27
BLOOMINGTON    CLOUDY    32  30  92 S10       30.21S WCI  24
DECATUR        CLOUDY    33  29  85 S8        30.23R WCI  26
PEORIA         CLOUDY    36  29  75 SE6       30.19F WCI  31
LACON*         CLOUDY    33  29  84 S5        30.18F WCI  29
LINCOLN*       CLOUDY    35  32  89 S7        30.22S WCI  29
SPRINGFIELD    CLOUDY    37  31  78 S9        30.20F WCI  30
TAYLORVILLE    CLOUDY    34  32  93 SE9       30.22S WCI  26
$$

ILZ033-039-045-046-055>057-062-063-211200-
EAST-CENTRAL ILLINOIS

CITY           SKY/WX    TMP DP  RH WIND       PRES   REMARKS
CHAMPAIGN      CLOUDY    32  27  81 S6        30.24R WCI  26
DANVILLE*      CLOUDY    29  27  92 SE6       30.23R WCI  23
RANTOUL*       CLOUDY    32  30  92 S3        30.24R FOG
MATTOON        CLOUDY    31  26  82 SE10      30.24R WCI  22
PARIS*         CLOUDY    29  27  95 SE5       30.27R FOG     WCI  23
$$

ILZ079-100>102-211200-
SOUTHWEST ILLINOIS

CITY           SKY/WX    TMP DP  RH WIND       PRES   REMARKS
ALTON          CLOUDY    38  32  80 SE7       30.21S WCI  33
BELLEVILLE     CLOUDY    37  33  83 SE6       30.22S WCI  33
CAHOKIA*       CLOUDY    39  33  79 SE8       30.21S WCI  33
SPARTA*        CLOUDY    34  30  85 SE3       30.24S
$$

ILZ064>066-069>071-074>076-080>082-084>086-088>090-092>094-211200-
SOUTH-CENTRAL ILLINOIS

CITY           SKY/WX    TMP DP  RH WIND       PRES   REMARKS
CARBONDALE     CLOUDY    29  26  89 CALM      30.25S
CAIRO*         CLEAR     29  29 100 NE3       30.25S FOG
EFFINGHAM*     CLOUDY    32  26  78 SE5       30.27R WCI  28
MARION         MOCLDY    30  27  86 CALM      30.25S
MT. VERNON     MOCLDY    28  23  80 CALM      30.26R
CENTRALIA*     CLOUDY    34  28  80 SE6       30.24S WCI  29
SALEM*         CLOUDY    36  29  78 SE7       30.24S WCI  30
METROPOLIS*    CLEAR     25  25 100 CALM      30.25R FOG
$$

ILZ067-068-072-073-078-083-087-091-211200-
SOUTHEAST ILLINOIS

CITY           SKY/WX    TMP DP  RH WIND       PRES   REMARKS
LAWRENCEVILLE  CLEAR     24  22  91 NE5       30.29R FOG     WCI  18
FLORA*         CLEAR     31  27  86 SE3       30.27R
FAIRFIELD*     CLEAR     27  26  94 CALM      30.25S FOG
HARRISBURG*    CLEAR     26  26  99 CALM      30.27S FOG
ROBINSON*      PTCLDY    22  21  98 SE5       30.29S FOG     WCI  15
CARMI*         CLEAR     24  24 100 CALM      30.26S FOG
$$

ABBREVIATIONS USED IN REMARKS
   TC - TEMPERATURE IN CELSIUS
  WCI - WIND CHILL INDEX
   HX - HEAT INDEX
  VSB - VISIBILITY
$$




USA.gov is the U.S. government's official web portal to all federal, state and local government web resources and services.